WESTFORD NEEDLES, 2530

Orbit data source: Space-Track

WESTFORD NEEDLES, 2530 is space debris in LEO originally from a launch on Thu, 09 May 1963 UTC launched from the Air Force Western Test Range (AFWTR). Debris objects in space refer to the collection of defunct objects orbiting the Earth. Examples of debris include non-operational satellites, rocket bodies, and fragments generated from explosions, collisions, or faulty payload assembly.

Loading next visibility...
Identifier
2530, 1963-014AJ
Orbit
LEO
Country
Flag of USUS
Related business
Manufacturer
Unknown
Mission
Spacecraft
Bus & Motor
Unknown
Mass
Unknown
Launch date (UTC)
1963-05-09 (62 years ago)
Launch vehicle
Unknown
Launch site
Air Force Western Test Range (AFWTR)
Object type
Payload
Rocket body
Debris
Shape & HBR
Unknown
Radar Cross Section
Medium (>0.1 m² and <1 m²)

Expand to show TLE details & history
Last TLE update: 1 day ago

TLE from 1 day ago
0 WESTFORD NEEDLES
1 02530U 63014AJ  25241.26245737  .00000798  00000-0  33350+0 0  9991
2 02530  87.6471 179.7703 0400462  93.5687  60.8624  8.68092121914268
Epoch: 2025-08-29T06:17Z
TLE epoch observation values (Epoch: 2025-08-29T06:17:56.316Z)
Latitude
21.4516°
Longitude
-73.34936°
Altitude
3,442.023 km
Speed
6.431 km/s
True Right ascension
23h 55m 23s
True Declination
21° 22' 00"
Sunlit
Object was in full shadow at epoch
Visualization orbit readout
Latitude
Unknown
Longitude
Unknown
Altitude
Unknown
Speed
Unknown
Apparent Right ascension
Unknown
Apparent Declination
Unknown
Sunlit
N/A
Visualization observer readout
Local Sidereal Time
04:33:21
Azimuth
Unknown
Elevation
Unknown
Doppler factor
Unknown
Orbital elements
Apogee altitude
4,020.638 km
Perigee altitude
3,219.844 km
Semi-major axis
9,998.378 km
Eccentricity
0.04005
Inclination
87.6471°
RAAN
179.7703°
Arg. of periapsis
93.5687°
True anomaly
64.96715°
Mean anomaly
60.8624°
Eccentric anomaly
62.90507°
Mean motion
2.17095 °/min
Orbital period
165.83 mins
BSTAR
0.3335
Loading maneuver chart data...
Computing Atmospheric mass density...

Documentation

Showing up to 5 results
|